Location: Skalnate Pleso
(49.1889°N, 20.2450°E)
Time: 14:43:28
(UTC+01:00)

NOAA 6 - Pass Details

Date: 19 November 2019
Orbit: 772 x 788 km, 98.6° (Epoch: 07 December)

Event Time Altitude Azimuth Distance (km) Brightness Sun altitude
Rises 05:40:35 0° 13° (NNE) 3,267 7.2 -12.0°
Reaches altitude 10° 05:42:55 10° 11° (NNE) 2,333 6.5 -11.6°
Maximum altitude 05:48:02 73° 288° (WNW) 812 4.0 -10.8°
Drops below altitude 10° 05:53:07 10° 205° (SSW) 2,312 6.4 -10.0°
Sets 05:55:25 0° 203° (SSW) 3,234 7.2 -9.7°
